Weather in Streletskaya

Russia / Chuvash Republic     55°58′01″N   46°10′23″E
temp.,
°C
wind,
m/s
gust,
m/s
humid.,
%
clouds,
%
prec.,
mm/h
press.,
hPa
HPBL,
m
14 april, wed
wed1400:00+5sse227748 0.0 102922
03:00+5sse227861 0.0 102919
06:00+3sse23855 0.0 102836
09:00+11sse36685 0.0 1028192
12:00+16sse46515 0.0 1026576
15:00+18s364413 0.0 10241045
18:00+14sse22681 0.0 102313
21:00+11se22855 0.0 102327
15 april, thu
thu1500:00+10sse34900 0.0 102263
03:00+9sse22925 0.0 102119
06:00+9sse22925 0.0 102032
09:00+14ssw237530 0.0 1020382
12:00+17sw2257100 0.0 10191124
15:00+18w2248100 0.0 10181526
18:00+15nw1160100 0.0 101912
21:00+12nne4775100 0.0 1020189
16 april, fri
fri1600:00+8nne51188100 0.1 1021429
03:00+7ne6118483 0.1 1022501
06:00+6ne6128498 0.0 1023522
09:00+7ne61079100 0.0 1025603
12:00+9ene687397 0.0 1025852
15:00+11ene586367 0.0 10251036
18:00+10ne496113 0.0 1026433
21:00+6ne512635 0.0 1027332
17 april, sat
sat1700:00+4ne412675 0.0 1028298
03:00+2ne411735 0.0 1028255
06:00+2ne411721 0.0 1029287
09:00+8ene58493 0.0 1030696
12:00+11ene57375 0.0 10291282
15:00+12ne56351 0.0 10281512
18:00+10ne36490 0.0 1028195
21:00+6ne22630 0.0 102928
18 april, sun
sun1800:00+4ne22710 0.0 102925
03:00+3ne34780 0.0 102961
06:00+3ne27795 0.0 1030168
09:00+8ne465680 0.0 1029673
12:00+12ne454695 0.0 10291493
15:00+13ne564397 0.0 10291981
18:00+9ene5960100 0.0 1030616
21:00+6ene5107493 0.0 1031527